Content
SEND FEEDBACK

Daily
Averages
Monthly
Summary
United States of America

CHEWELAH, WASHINGTON


Home > North America > United States > Washington
Elevation: 1663 feet     Latitude: 48 15N     Longitude: 117 43W

WEATHER
 
SELECT A DAY
Number of Records: 171,398;   Date Range: 1/7/99 - 10/23/14
 
SHARE

PRINT THIS DATA

[ ← Previous Day ]
WEATHER ALMANAC - FEBRUARY 13, 2013
[ Next Day → ]
[ °C ]   °F
Weather ElementAverageHighLow
Temperature30.4 °F43 °F (1:53 pm)17.6 °F (11:19 pm)
Dewpoint26.8 °F33.1 °F (12:53 am)17.6 °F (11:19 pm)
Humidity87.2 %100 % (7:09 am)62 % (1:53 pm)
Barometer30.25 in30.40 in (11:53 pm)30.14 in (7:09 am)
Wind Speed4 mph10.4 mph (12:53 am)
Weather ElementAverage
Visibility8.6 mi
Wind DirectionESE (97.4 °)

Weather ElementTotal
Precipitation---
Heating Degree Days34.7 (Base 65)
Averaged from 31 records on February 13, 2013
WEATHER CONDITIONS BREAKOUT
WIND DIRECTION BREAKOUT
WEATHER BY HOUR - FEBRUARY 13, 2013
[ °C ]   °F
Local TimeTemperatureDewpointHumidityBarometerVisibilityWind DirectionWind SpeedGust SpeedPrecipitationEventsConditions
12:53 AM37.0 °F33.1 °F86 %30.18 in10.0 miSSE (160°)10.4 mphOvercast
1:53 AM36.0 °F33.1 °F89 %30.18 in10.0 miSSE (160°)9.2 mphPartly Cloudy
2:53 AM35.1 °F32.0 °F89 %30.16 in10.0 miSSE (160°)10.4 mphClear
3:53 AM34.0 °F30.9 °F89 %30.17 in10.0 miSE (140°)9.2 mphClear
4:53 AM34.0 °F32.0 °F92 %30.18 in10.0 miSouth (180°)10.4 mphClear
5:53 AM32.0 °F30.0 °F92 %30.19 in10.0 miSSW (200°)9.2 mphClear
6:53 AM28.9 °F28.0 °F96 %30.21 in10.0 miCalmClear
7:09 AM24.8 °F24.8 °F100 %30.14 in0.8 miNE (50°)4.6 mphMist
7:18 AM24.8 °F24.8 °F100 %30.15 in1.2 miEast (90°)3.5 mphClear
7:21 AM24.8 °F24.8 °F100 %30.15 in4.0 miESE (110°)3.5 mphClear
7:53 AM27.0 °F25.0 °F92 %30.22 in10.0 miCalmClear
8:53 AM35.1 °F30.9 °F85 %30.22 in10.0 miSE (140°)5.8 mphClear
9:53 AM36.0 °F32.0 °F86 %30.25 in10.0 miSSW (200°)4.6 mphClear
10:53 AM37.9 °F32.0 °F79 %30.25 in10.0 miSSW (200°)3.5 mphClear
11:53 AM39.9 °F32.0 °F73 %30.24 in10.0 miSSW (210°)3.5 mphClear
12:53 PM39.9 °F30.9 °F70 %30.23 in10.0 miCalmClear
1:53 PM43.0 °F30.9 °F62 %30.21 in10.0 miCalmClear
2:53 PM39.9 °F30.9 °F70 %30.23 in10.0 miSouth (180°)5.8 mphScattered Clouds
3:53 PM37.9 °F30.0 °F73 %30.25 in10.0 miSSE (160°)4.6 mphClear
4:53 PM37.9 °F28.9 °F70 %30.26 in10.0 miSE (140°)4.6 mphClear
5:53 PM35.1 °F27.0 °F72 %30.28 in10.0 miESE (110°)3.5 mphClear
6:53 PM28.9 °F25.0 °F85 %30.31 in10.0 miCalmClear
7:53 PM28.0 °F25.0 °F88 %30.33 in10.0 miCalmClear
8:53 PM25.0 °F23.0 °F92 %30.34 in10.0 miCalmClear
9:53 PM21.9 °F21.0 °F96 %30.36 in10.0 miCalmClear
10:53 PM19.0 °F19.0 °F100 %30.38 in5.0 miCalmClear
11:03 PM21.2 °F19.4 °F93 %30.31 in2.5 miWest (280°)3.5 mphClear
11:10 PM19.4 °F19.4 °F100 %30.31 in10.0 miCalmClear
11:19 PM17.6 °F17.6 °F100 %30.31 in2.5 miENE (60°)5.8 mphPartly Cloudy
11:33 PM21.2 °F19.4 °F93 %30.32 in10.0 miNNE (30°)3.5 mphClear
11:53 PM19.9 °F18.0 °F92 %30.40 in10.0 miENE (60°)3.5 mphClear
Hourly data recorded from KDEW, located miles away from Chewelah, Washington







STORIES FROM OUR PARTNERS